TimeCDT,TemperatureF,Dew PointF,Humidity,Sea Level PressureIn,VisibilityMPH,Wind Direction,Wind SpeedMPH,Gust SpeedMPH,PrecipitationIn,Events,Conditions,WindDirDegrees,DateUTC
12:20 AM,-0.4,-5.8,78,30.19,10.0,North,11.5,-,N/A,,Overcast,360,2013-03-16 05:20:00
12:24 AM,-0.4,-5.8,78,30.20,10.0,North,12.7,-,N/A,,Overcast,360,2013-03-16 05:24:00
12:44 AM,-0.4,-5.8,78,30.20,10.0,North,11.5,-,N/A,,Overcast,360,2013-03-16 05:44:00
12:55 AM,-1.5,-6.3,80,30.20,10.0,North,11.5,-,N/A,,Overcast,350,2013-03-16 05:55:00
1:16 AM,-4.0,-7.6,85,30.20,10.0,North,11.5,-,N/A,,Overcast,350,2013-03-16 06:16:00
1:24 AM,-4.0,-7.6,85,30.20,10.0,North,11.5,-,N/A,,Overcast,350,2013-03-16 06:24:00
1:26 AM,-4.0,-7.6,85,30.20,10.0,North,10.4,-,N/A,,Overcast,350,2013-03-16 06:26:00
1:46 AM,-2.2,-7.6,78,30.21,10.0,North,10.4,-,N/A,,Overcast,350,2013-03-16 06:46:00
1:51 AM,-2.2,-7.6,78,30.21,10.0,North,9.2,-,N/A,,Overcast,350,2013-03-16 06:51:00
1:55 AM,-2.2,-5.8,85,30.21,10.0,North,10.4,-,N/A,,Overcast,350,2013-03-16 06:55:00
1:57 AM,-2.2,-5.8,85,30.20,10.0,North,11.5,-,N/A,Snow,Light Snow,360,2013-03-16 06:57:00
2:03 AM,-0.4,-5.8,78,30.20,10.0,North,12.7,-,N/A,Snow,Light Snow,360,2013-03-16 07:03:00
2:08 AM,-0.4,-5.8,78,30.20,10.0,North,12.7,-,N/A,Snow,Light Snow,360,2013-03-16 07:08:00
2:19 AM,-0.4,-5.8,78,30.20,10.0,North,11.5,-,N/A,,Overcast,360,2013-03-16 07:19:00
2:21 AM,-0.4,-5.8,78,30.21,10.0,North,11.5,-,N/A,,Overcast,360,2013-03-16 07:21:00
2:22 AM,-0.4,-5.8,78,30.21,10.0,North,11.5,-,N/A,Snow,Light Snow,360,2013-03-16 07:22:00
2:42 AM,-0.4,-5.8,78,30.21,10.0,North,12.7,-,N/A,Snow,Light Snow,360,2013-03-16 07:42:00
2:46 AM,-0.4,-5.8,78,30.21,10.0,North,11.5,-,N/A,,Overcast,360,2013-03-16 07:46:00
2:55 AM,-0.6,-5.4,80,30.22,10.0,North,12.7,-,0.00,,Overcast,350,2013-03-16 07:55:00
2:59 AM,-0.4,-5.8,78,30.22,10.0,North,11.5,-,N/A,,Overcast,350,2013-03-16 07:59:00
3:14 AM,-2.2,-5.8,85,30.22,10.0,North,11.5,-,N/A,,Overcast,350,2013-03-16 08:14:00
3:48 AM,-4.0,-7.6,85,30.24,10.0,NNW,12.7,-,N/A,,Overcast,340,2013-03-16 08:48:00
3:55 AM,-3.6,-8.3,80,30.24,10.0,North,12.7,-,N/A,,Overcast,350,2013-03-16 08:55:00
4:04 AM,-4.0,-7.6,85,30.25,10.0,North,12.7,-,N/A,,Mostly Cloudy,350,2013-03-16 09:04:00
4:06 AM,-4.0,-7.6,85,30.25,10.0,NNW,12.7,-,N/A,,Scattered Clouds,340,2013-03-16 09:06:00
4:47 AM,-5.8,-9.4,84,30.25,10.0,NW,6.9,-,N/A,Snow,Light Snow,320,2013-03-16 09:47:00
4:55 AM,-5.4,-10.5,79,30.24,10.0,NW,6.9,-,0.00,Snow,Light Snow,310,2013-03-16 09:55:00
5:13 AM,-5.8,-11.2,77,30.25,10.0,NW,5.8,-,N/A,,Mostly Cloudy,310,2013-03-16 10:13:00
5:55 AM,-5.3,-10.5,78,30.25,10.0,NW,8.1,-,0.00,,Scattered Clouds,320,2013-03-16 10:55:00
6:37 AM,-7.6,-13.0,77,30.25,10.0,WNW,6.9,-,N/A,Snow,Light Snow,300,2013-03-16 11:37:00
6:48 AM,-9.4,-14.8,77,30.25,10.0,WNW,6.9,-,N/A,,Clear,290,2013-03-16 11:48:00
6:55 AM,-9.8,-14.8,78,30.25,10.0,WNW,6.9,-,0.00,,Clear,300,2013-03-16 11:55:00
7:55 AM,-9.2,-14.4,78,30.25,10.0,WNW,9.2,-,N/A,,Clear,300,2013-03-16 12:55:00
8:55 AM,-7.8,-13.7,75,30.25,10.0,WNW,5.8,-,N/A,,Clear,290,2013-03-16 13:55:00
9:55 AM,-4.0,-11.4,71,30.25,10.0,WNW,8.1,-,N/A,,Clear,300,2013-03-16 14:55:00
10:55 AM,1.4,-6.5,69,30.24,10.0,WNW,10.4,-,N/A,,Scattered Clouds,300,2013-03-16 15:55:00
11:01 AM,1.4,-5.8,72,30.24,10.0,WNW,10.4,-,N/A,,Mostly Cloudy,300,2013-03-16 16:01:00
11:30 AM,3.2,-4.0,72,30.24,10.0,WNW,11.5,-,N/A,,Scattered Clouds,300,2013-03-16 16:30:00
11:55 AM,5.2,-4.0,66,30.25,10.0,WNW,12.7,-,N/A,,Scattered Clouds,290,2013-03-16 16:55:00
12:22 PM,6.8,-2.2,67,30.25,10.0,NW,15.0,-,N/A,,Overcast,310,2013-03-16 17:22:00
12:48 PM,6.8,-2.2,67,30.26,10.0,WNW,9.2,-,N/A,,Overcast,300,2013-03-16 17:48:00
12:55 PM,7.0,-2.2,66,30.26,10.0,WNW,10.4,-,N/A,,Overcast,290,2013-03-16 17:55:00
1:02 PM,6.8,-2.2,67,30.26,10.0,WNW,10.4,-,N/A,,Overcast,290,2013-03-16 18:02:00
1:55 PM,8.6,-0.9,65,30.27,10.0,NNW,10.4,-,N/A,,Overcast,330,2013-03-16 18:55:00
2:10 PM,8.6,-2.2,62,30.27,10.0,NW,12.7,-,N/A,,Mostly Cloudy,320,2013-03-16 19:10:00
2:55 PM,9.1,-0.9,64,30.27,10.0,NNW,11.5,-,N/A,,Clear,330,2013-03-16 19:55:00
3:55 PM,9.9,0.3,65,30.26,10.0,North,12.7,-,N/A,,Clear,360,2013-03-16 20:55:00
4:55 PM,9.5,-0.2,65,30.27,10.0,NNE,11.5,-,N/A,,Clear,20,2013-03-16 21:55:00
5:55 PM,8.2,-1.8,64,30.27,10.0,NNE,15.0,-,N/A,,Clear,20,2013-03-16 22:55:00
6:34 PM,6.8,-0.4,72,30.27,10.0,NNE,17.3,-,N/A,,Partly Cloudy,30,2013-03-16 23:34:00
6:55 PM,4.5,-3.5,70,30.28,10.0,NNE,16.1,-,N/A,,Partly Cloudy,30,2013-03-16 23:55:00
7:55 PM,-1.3,-9.0,70,30.30,10.0,North,6.9,-,N/A,,Clear,10,2013-03-17 00:55:00
8:55 PM,-5.3,-11.6,74,30.32,10.0,North,4.6,-,N/A,,Clear,350,2013-03-17 01:55:00
9:55 PM,-8.7,-14.3,77,30.33,10.0,NNW,5.8,-,N/A,,Clear,340,2013-03-17 02:55:00
10:55 PM,-10.1,-14.8,80,30.33,10.0,North,5.8,-,N/A,,Clear,350,2013-03-17 03:55:00
11:55 PM,-16.8,-22.2,76,30.33,10.0,West,5.8,-,N/A,,Clear,260,2013-03-17 04:55:00